STARLINK-1829 (46726 NORAD) Tracking and Keplerian Element Data

This shows tracking and keplerian element data for the satellite.

Feedback or suggestion? Click here.




ElementValue
Catalog46726
NameSTARLINK-1829
Epoch Orbit777
Epoch Day338.91667824
Epoch Year2020
RAAN241.2258
Inclination53.055
Eccentricity0.0001327
Argument of Perigee35.1584
Mean Anonmoly141.4071
Mean Motion15.62808289
Decay Rate-0.00036129
L11 46726U 20073BJ 20338.91667824 -.00036129 00000-0 -38965-3 0 9993
L22 46726 53.0550 241.2258 0001327 35.1584 141.4071 15.62808289 7776

Live tracking and technical data element details for STARLINK-1829 (NORAD 46726). STARLINK-1829 can be tracked NOW for your location showing map with azimuth and elevation plus other details from your city location.

Track the satellite on the map from your city or location and see movement details for azimuth, elevation, latitude, longitude, range, height, and movement on the map or in text.







IsCatalogInMostPopularTable: catalog: 46726, numindb: 11
Update: records affected: 1



GetName: 46726 STARLINK-1829

Hit Count: updated at: Sat, 05 Dec 2020 05:55:31 GMT